Year,Month,Day,Hour,Minute,Value (Times are PST for temperature in C)
2011,10,23,00,00,11.40
2011,10,23,00,01,11.40
2011,10,23,00,02,11.40
2011,10,23,00,03,11.40
2011,10,23,00,04,11.40
2011,10,23,00,05,11.40
2011,10,23,00,06,11.50
2011,10,23,00,07,11.50
2011,10,23,00,08,11.50
2011,10,23,00,09,11.50
2011,10,23,00,10,11.50
2011,10,23,00,11,11.50
2011,10,23,00,12,11.50
2011,10,23,00,13,11.50
2011,10,23,00,14,11.50
2011,10,23,00,15,11.50
2011,10,23,00,16,11.50
2011,10,23,00,17,11.40
2011,10,23,00,18,11.40
2011,10,23,00,19,11.40
2011,10,23,00,20,11.40
2011,10,23,00,21,11.40
2011,10,23,00,22,11.40
2011,10,23,00,23,11.40
2011,10,23,00,24,11.40
2011,10,23,00,25,11.40
2011,10,23,00,26,11.40
2011,10,23,00,27,11.40
2011,10,23,00,28,11.40
2011,10,23,00,29,11.30
2011,10,23,00,30,11.30
2011,10,23,00,31,11.30
2011,10,23,00,32,11.20
2011,10,23,00,33,11.20
2011,10,23,00,34,11.20
2011,10,23,00,35,11.10
2011,10,23,00,36,11.10
2011,10,23,00,37,11.10
2011,10,23,00,38,11.20
2011,10,23,00,39,11.20
2011,10,23,00,40,11.10
2011,10,23,00,41,11.10
2011,10,23,00,42,11.10
2011,10,23,00,43,11.10
2011,10,23,00,44,11.10
2011,10,23,00,45,11.10
2011,10,23,00,46,11.10
2011,10,23,00,47,11.10
2011,10,23,00,48,11.10
2011,10,23,00,49,11.10
2011,10,23,00,50,11.10
2011,10,23,00,51,11.10
2011,10,23,00,52,11.10
2011,10,23,00,53,11.10
2011,10,23,00,54,11.10
2011,10,23,00,55,11.00
2011,10,23,00,56,11.00
2011,10,23,00,57,11.10
2011,10,23,00,58,11.10
2011,10,23,00,59,11.10
2011,10,23,01,00,11.10
2011,10,23,01,01,11.10
2011,10,23,01,02,11.10
2011,10,23,01,03,11.10
2011,10,23,01,04,11.10
2011,10,23,01,05,11.10
2011,10,23,01,06,11.10
2011,10,23,01,07,11.10
2011,10,23,01,08,11.10
2011,10,23,01,09,11.10
2011,10,23,01,10,11.10
2011,10,23,01,11,11.10
2011,10,23,01,12,11.10
2011,10,23,01,13,11.10
2011,10,23,01,14,11.10
2011,10,23,01,15,11.00
2011,10,23,01,16,10.90
2011,10,23,01,17,10.90
2011,10,23,01,18,10.80
2011,10,23,01,19,10.80
2011,10,23,01,20,10.90
2011,10,23,01,21,10.90
2011,10,23,01,22,10.90
2011,10,23,01,23,10.90
2011,10,23,01,24,10.90
2011,10,23,01,25,10.90
2011,10,23,01,26,10.90
2011,10,23,01,27,10.90
2011,10,23,01,28,10.90
2011,10,23,01,29,10.90
2011,10,23,01,30,10.90
2011,10,23,01,31,10.90
2011,10,23,01,32,11.00
2011,10,23,01,33,11.00
2011,10,23,01,34,11.00
2011,10,23,01,35,11.00
2011,10,23,01,36,11.00
2011,10,23,01,37,11.00
2011,10,23,01,38,10.90
2011,10,23,01,39,10.90
2011,10,23,01,40,10.90
2011,10,23,01,41,10.90
2011,10,23,01,42,10.90
2011,10,23,01,43,10.80
2011,10,23,01,44,10.80
2011,10,23,01,45,10.80
2011,10,23,01,46,10.80
2011,10,23,01,47,10.70
2011,10,23,01,48,10.70
2011,10,23,01,49,10.70
2011,10,23,01,50,10.70
2011,10,23,01,51,10.60
2011,10,23,01,52,10.60
2011,10,23,01,53,10.50
2011,10,23,01,54,10.50
2011,10,23,01,55,10.40
2011,10,23,01,56,10.40
2011,10,23,01,57,10.30
2011,10,23,01,58,10.30
2011,10,23,01,59,10.20
2011,10,23,02,00,10.20
2011,10,23,02,01,10.20
2011,10,23,02,02,10.10
2011,10,23,02,03,10.10
2011,10,23,02,04,10.00
2011,10,23,02,05,10.00
2011,10,23,02,06,9.90
2011,10,23,02,07,9.90
2011,10,23,02,08,9.90
2011,10,23,02,09,9.90
2011,10,23,02,10,9.80
2011,10,23,02,11,9.80
2011,10,23,02,12,9.80
2011,10,23,02,13,9.80
2011,10,23,02,14,9.80
2011,10,23,02,15,9.80
2011,10,23,02,16,9.70
2011,10,23,02,17,9.70
2011,10,23,02,18,9.70
2011,10,23,02,19,9.60
2011,10,23,02,20,9.60
2011,10,23,02,21,9.60
2011,10,23,02,22,9.60
2011,10,23,02,23,9.60
2011,10,23,02,24,9.60
2011,10,23,02,25,9.60
2011,10,23,02,26,9.60
2011,10,23,02,27,9.60
2011,10,23,02,28,9.60
2011,10,23,02,29,9.60
2011,10,23,02,30,9.60
2011,10,23,02,31,9.60
2011,10,23,02,32,9.60
2011,10,23,02,33,9.60
2011,10,23,02,34,9.60
2011,10,23,02,35,9.60
2011,10,23,02,36,9.60
2011,10,23,02,37,9.60
2011,10,23,02,38,9.60
2011,10,23,02,39,9.60
2011,10,23,02,40,9.60
2011,10,23,02,41,9.60
2011,10,23,02,42,9.60
2011,10,23,02,43,9.60
2011,10,23,02,44,9.60
2011,10,23,02,45,9.60
2011,10,23,02,46,9.50
2011,10,23,02,47,9.50
2011,10,23,02,48,9.50
2011,10,23,02,49,9.50
2011,10,23,02,50,9.40
2011,10,23,02,51,9.40
2011,10,23,02,52,9.40
2011,10,23,02,53,9.40
2011,10,23,02,54,9.40
2011,10,23,02,55,9.40
2011,10,23,02,56,9.40
2011,10,23,02,57,9.40
2011,10,23,02,58,9.40
2011,10,23,02,59,9.30
2011,10,23,03,00,9.30
2011,10,23,03,01,9.30
2011,10,23,03,02,9.20
2011,10,23,03,03,9.20
2011,10,23,03,04,9.20
2011,10,23,03,05,9.20
2011,10,23,03,06,9.30
2011,10,23,03,07,9.30
2011,10,23,03,08,9.40
2011,10,23,03,09,9.40
2011,10,23,03,10,9.40
2011,10,23,03,11,9.40
2011,10,23,03,12,9.30
2011,10,23,03,13,9.30
2011,10,23,03,14,9.20
2011,10,23,03,15,9.20
2011,10,23,03,16,9.20
2011,10,23,03,17,9.20
2011,10,23,03,18,9.20
2011,10,23,03,19,9.20
2011,10,23,03,20,9.10
2011,10,23,03,21,9.10
2011,10,23,03,22,9.10
2011,10,23,03,23,9.10
2011,10,23,03,24,9.10
2011,10,23,03,25,9.20
2011,10,23,03,26,9.20
2011,10,23,03,27,9.30
2011,10,23,03,28,9.30
2011,10,23,03,29,9.40
2011,10,23,03,30,9.50
2011,10,23,03,31,9.50
2011,10,23,03,32,9.60
2011,10,23,03,33,9.60
2011,10,23,03,34,9.60
2011,10,23,03,35,9.60
2011,10,23,03,36,9.60
2011,10,23,03,37,9.70
2011,10,23,03,38,9.70
2011,10,23,03,39,9.60
2011,10,23,03,40,9.60
2011,10,23,03,41,9.60
2011,10,23,03,42,9.60
2011,10,23,03,43,9.60
2011,10,23,03,44,9.60
2011,10,23,03,45,9.60
2011,10,23,03,46,9.60
2011,10,23,03,47,9.60
2011,10,23,03,48,9.60
2011,10,23,03,49,9.50
2011,10,23,03,50,9.50
2011,10,23,03,51,9.40
2011,10,23,03,52,9.40
2011,10,23,03,53,9.40
2011,10,23,03,54,9.40
2011,10,23,03,55,9.40
2011,10,23,03,56,9.40
2011,10,23,03,57,9.40
2011,10,23,03,58,9.40
2011,10,23,03,59,9.40
2011,10,23,04,00,9.40
2011,10,23,04,01,9.40
2011,10,23,04,02,9.40
2011,10,23,04,03,9.40
2011,10,23,04,04,9.30
2011,10,23,04,05,9.30
2011,10,23,04,06,9.30
2011,10,23,04,07,9.30
2011,10,23,04,08,9.30
2011,10,23,04,09,9.30
2011,10,23,04,10,9.30
2011,10,23,04,11,9.30
2011,10,23,04,12,9.30
2011,10,23,04,13,9.40
2011,10,23,04,14,9.40
2011,10,23,04,15,9.40
2011,10,23,04,16,9.30
2011,10,23,04,17,9.30
2011,10,23,04,18,9.30
2011,10,23,04,19,9.30
2011,10,23,04,20,9.30
2011,10,23,04,21,9.20
2011,10,23,04,22,9.20
2011,10,23,04,23,9.20
2011,10,23,04,24,9.20
2011,10,23,04,25,9.10
2011,10,23,04,26,9.10
2011,10,23,04,27,9.10
2011,10,23,04,28,9.10
2011,10,23,04,29,9.00
2011,10,23,04,30,8.90
2011,10,23,04,31,8.90
2011,10,23,04,32,8.80
2011,10,23,04,33,8.70
2011,10,23,04,34,8.60
2011,10,23,04,35,8.60
2011,10,23,04,36,8.70
2011,10,23,04,37,8.80
2011,10,23,04,38,8.80
2011,10,23,04,39,8.80
2011,10,23,04,40,8.80
2011,10,23,04,41,8.90
2011,10,23,04,42,8.90
2011,10,23,04,43,8.80
2011,10,23,04,44,8.80
2011,10,23,04,45,8.80
2011,10,23,04,46,8.80
2011,10,23,04,47,8.70
2011,10,23,04,48,8.60
2011,10,23,04,49,8.60
2011,10,23,04,50,8.50
2011,10,23,04,51,8.40
2011,10,23,04,52,8.40
2011,10,23,04,53,8.30
2011,10,23,04,54,8.20
2011,10,23,04,55,8.20
2011,10,23,04,56,8.20
2011,10,23,04,57,8.20
2011,10,23,04,58,8.20
2011,10,23,04,59,8.20
2011,10,23,05,00,8.20
2011,10,23,05,01,8.20
2011,10,23,05,02,8.20
2011,10,23,05,03,8.20
2011,10,23,05,04,8.20
2011,10,23,05,05,8.20
2011,10,23,05,06,8.20
2011,10,23,05,07,8.20
2011,10,23,05,08,8.20
2011,10,23,05,09,8.20
2011,10,23,05,10,8.20
2011,10,23,05,11,8.20
2011,10,23,05,12,8.20
2011,10,23,05,13,8.20
2011,10,23,05,14,8.20
2011,10,23,05,15,8.30
2011,10,23,05,16,8.30
2011,10,23,05,17,8.30
2011,10,23,05,18,8.40
2011,10,23,05,19,8.40
2011,10,23,05,20,8.40
2011,10,23,05,21,8.30
2011,10,23,05,22,8.30
2011,10,23,05,23,8.30
2011,10,23,05,24,8.30
2011,10,23,05,25,8.30
2011,10,23,05,26,8.30
2011,10,23,05,27,8.30
2011,10,23,05,28,8.30
2011,10,23,05,29,8.20
2011,10,23,05,30,8.20
2011,10,23,05,31,8.20
2011,10,23,05,32,8.20
2011,10,23,05,33,8.20
2011,10,23,05,34,8.10
2011,10,23,05,35,8.10
2011,10,23,05,36,8.10
2011,10,23,05,37,8.00
2011,10,23,05,38,8.00
2011,10,23,05,39,8.00
2011,10,23,05,40,7.90
2011,10,23,05,41,7.90
2011,10,23,05,42,8.00
2011,10,23,05,43,8.00
2011,10,23,05,44,8.00
2011,10,23,05,45,8.00
2011,10,23,05,46,8.10
2011,10,23,05,47,8.10
2011,10,23,05,48,8.10
2011,10,23,05,49,8.10
2011,10,23,05,50,8.20
2011,10,23,05,51,8.20
2011,10,23,05,52,8.20
2011,10,23,05,53,8.10
2011,10,23,05,54,8.10
2011,10,23,05,55,8.10
2011,10,23,05,56,8.10
2011,10,23,05,57,8.10
2011,10,23,05,58,8.10
2011,10,23,05,59,8.00
2011,10,23,06,00,8.00
2011,10,23,06,01,7.90
2011,10,23,06,02,7.90
2011,10,23,06,03,7.90
2011,10,23,06,04,7.80
2011,10,23,06,05,7.80
2011,10,23,06,06,7.80
2011,10,23,06,07,7.70
2011,10,23,06,08,7.70
2011,10,23,06,09,7.70
2011,10,23,06,10,7.60
2011,10,23,06,11,7.60
2011,10,23,06,12,7.60
2011,10,23,06,13,7.50
2011,10,23,06,14,7.50
2011,10,23,06,15,7.50
2011,10,23,06,16,7.40
2011,10,23,06,17,7.40
2011,10,23,06,18,7.40
2011,10,23,06,19,7.40
2011,10,23,06,20,7.30
2011,10,23,06,21,7.40
2011,10,23,06,22,7.40
2011,10,23,06,23,7.40
2011,10,23,06,24,7.40
2011,10,23,06,25,7.40
2011,10,23,06,26,7.40
2011,10,23,06,27,7.30
2011,10,23,06,28,7.30
2011,10,23,06,29,7.30
2011,10,23,06,30,7.30
2011,10,23,06,31,7.30
2011,10,23,06,32,7.30
2011,10,23,06,33,7.30
2011,10,23,06,34,7.30
2011,10,23,06,35,7.20
2011,10,23,06,36,7.20
2011,10,23,06,37,7.20
2011,10,23,06,38,7.20
2011,10,23,06,39,7.20
2011,10,23,06,40,7.20
2011,10,23,06,41,7.20
2011,10,23,06,42,7.10
2011,10,23,06,43,7.10
2011,10,23,06,44,7.10
2011,10,23,06,45,7.10
2011,10,23,06,46,7.00
2011,10,23,06,47,7.00
2011,10,23,06,48,7.00
2011,10,23,06,49,7.00
2011,10,23,06,50,6.90
2011,10,23,06,51,6.90
2011,10,23,06,52,6.90
2011,10,23,06,53,6.90
2011,10,23,06,54,6.90
2011,10,23,06,55,6.90
2011,10,23,06,56,6.90
2011,10,23,06,57,6.80
2011,10,23,06,58,6.90
2011,10,23,06,59,6.90
2011,10,23,07,00,6.90
2011,10,23,07,01,6.90
2011,10,23,07,02,7.00
2011,10,23,07,03,7.00
2011,10,23,07,04,7.10
2011,10,23,07,05,7.20
2011,10,23,07,06,7.20
2011,10,23,07,07,7.20
2011,10,23,07,08,7.20
2011,10,23,07,09,7.20
2011,10,23,07,10,7.20
2011,10,23,07,11,7.20
2011,10,23,07,12,7.20
2011,10,23,07,13,7.30
2011,10,23,07,14,7.30
2011,10,23,07,15,7.30
2011,10,23,07,16,7.30
2011,10,23,07,17,7.40
2011,10,23,07,18,7.40
2011,10,23,07,19,7.40
2011,10,23,07,20,7.40
2011,10,23,07,21,7.40
2011,10,23,07,22,7.40
2011,10,23,07,23,7.40
2011,10,23,07,24,7.30
2011,10,23,07,25,7.30
2011,10,23,07,26,7.30
2011,10,23,07,27,7.20
2011,10,23,07,28,7.20
2011,10,23,07,29,7.20
2011,10,23,07,30,7.20
2011,10,23,07,31,7.20
2011,10,23,07,32,7.20
2011,10,23,07,33,7.10
2011,10,23,07,34,7.10
2011,10,23,07,35,7.10
2011,10,23,07,36,7.10
2011,10,23,07,37,7.10
2011,10,23,07,38,7.00
2011,10,23,07,39,6.90
2011,10,23,07,40,6.90
2011,10,23,07,41,6.80
2011,10,23,07,42,6.80
2011,10,23,07,43,6.70
2011,10,23,07,44,6.70
2011,10,23,07,45,6.60
2011,10,23,07,46,6.60
2011,10,23,07,47,6.50
2011,10,23,07,48,6.50
2011,10,23,07,49,6.50
2011,10,23,07,50,6.50
2011,10,23,07,51,6.50
2011,10,23,07,52,6.40
2011,10,23,07,53,6.40
2011,10,23,07,54,6.40
2011,10,23,07,55,6.40
2011,10,23,07,56,6.40
2011,10,23,07,57,6.40
2011,10,23,07,58,6.40
2011,10,23,07,59,6.40
2011,10,23,08,00,6.30
2011,10,23,08,01,6.30
2011,10,23,08,02,6.30
2011,10,23,08,03,6.30
2011,10,23,08,04,6.30
2011,10,23,08,05,6.30
2011,10,23,08,06,6.30
2011,10,23,08,07,6.30
2011,10,23,08,08,6.30
2011,10,23,08,09,6.30
2011,10,23,08,10,6.30
2011,10,23,08,11,6.30
2011,10,23,08,12,6.30
2011,10,23,08,13,6.30
2011,10,23,08,14,6.30
2011,10,23,08,15,6.30
2011,10,23,08,16,6.30
2011,10,23,08,17,6.30
2011,10,23,08,18,6.30
2011,10,23,08,19,6.30
2011,10,23,08,20,6.30
2011,10,23,08,21,6.30
2011,10,23,08,22,6.30
2011,10,23,08,23,6.30
2011,10,23,08,24,6.30
2011,10,23,08,25,6.40
2011,10,23,08,26,6.40
2011,10,23,08,27,6.40
2011,10,23,08,28,6.40
2011,10,23,08,29,6.40
2011,10,23,08,30,6.40
2011,10,23,08,31,6.40
2011,10,23,08,32,6.40
2011,10,23,08,33,6.40
2011,10,23,08,34,6.40
2011,10,23,08,35,6.50
2011,10,23,08,36,6.50
2011,10,23,08,37,6.60
2011,10,23,08,38,6.70
2011,10,23,08,39,6.70
2011,10,23,08,40,6.80
2011,10,23,08,41,6.80
2011,10,23,08,42,6.90
2011,10,23,08,43,6.90
2011,10,23,08,44,6.90
2011,10,23,08,45,7.00
2011,10,23,08,46,7.00
2011,10,23,08,47,7.00
2011,10,23,08,48,7.10
2011,10,23,08,49,7.20
2011,10,23,08,50,7.20
2011,10,23,08,51,7.20
2011,10,23,08,52,7.30
2011,10,23,08,53,7.40
2011,10,23,08,54,7.40
2011,10,23,08,55,7.50
2011,10,23,08,56,7.60
2011,10,23,08,57,7.60
2011,10,23,08,58,7.70
2011,10,23,08,59,7.70
2011,10,23,09,00,7.70
2011,10,23,09,01,7.80
2011,10,23,09,02,7.80
2011,10,23,09,03,7.80
2011,10,23,09,04,7.90
2011,10,23,09,05,7.90
2011,10,23,09,06,8.00
2011,10,23,09,07,8.00
2011,10,23,09,08,8.10
2011,10,23,09,09,8.10
2011,10,23,09,10,8.10
2011,10,23,09,11,8.20
2011,10,23,09,12,8.20
2011,10,23,09,13,8.20
2011,10,23,09,14,8.20
2011,10,23,09,15,8.20
2011,10,23,09,16,8.30
2011,10,23,09,17,8.30
2011,10,23,09,18,8.30
2011,10,23,09,19,8.30
2011,10,23,09,20,8.30
2011,10,23,09,21,8.30
2011,10,23,09,22,8.30
2011,10,23,09,23,8.20
2011,10,23,09,24,8.20
2011,10,23,09,25,8.20
2011,10,23,09,26,8.20
2011,10,23,09,27,8.20
2011,10,23,09,28,8.20
2011,10,23,09,29,8.20
2011,10,23,09,30,8.20
2011,10,23,09,31,8.20
2011,10,23,09,32,8.30
2011,10,23,09,33,8.30
2011,10,23,09,34,8.40
2011,10,23,09,35,8.40
2011,10,23,09,36,8.40
2011,10,23,09,37,8.50
2011,10,23,09,38,8.60
2011,10,23,09,39,8.60
2011,10,23,09,40,8.60
2011,10,23,09,41,8.60
2011,10,23,09,42,8.70
2011,10,23,09,43,8.80
2011,10,23,09,44,8.90
2011,10,23,09,45,8.90
2011,10,23,09,46,9.00
2011,10,23,09,47,9.10
2011,10,23,09,48,9.10
2011,10,23,09,49,9.20
2011,10,23,09,50,9.30
2011,10,23,09,51,9.40
2011,10,23,09,52,9.50
2011,10,23,09,53,9.60
2011,10,23,09,54,9.70
2011,10,23,09,55,9.80
2011,10,23,09,56,9.90
2011,10,23,09,57,9.90
2011,10,23,09,58,10.00
2011,10,23,09,59,10.10
2011,10,23,10,00,10.20
2011,10,23,10,01,10.20
2011,10,23,10,02,10.30
2011,10,23,10,03,10.40
2011,10,23,10,04,10.50
2011,10,23,10,05,10.60
2011,10,23,10,06,10.80
2011,10,23,10,07,10.90
2011,10,23,10,08,11.00
2011,10,23,10,09,11.10
2011,10,23,10,10,11.20
2011,10,23,10,11,11.20
2011,10,23,10,12,11.30
2011,10,23,10,13,11.40
2011,10,23,10,14,11.50
2011,10,23,10,15,11.50
2011,10,23,10,16,11.60
2011,10,23,10,17,11.60
2011,10,23,10,18,11.70
2011,10,23,10,19,11.70
2011,10,23,10,20,11.70
2011,10,23,10,21,11.70
2011,10,23,10,22,11.70
2011,10,23,10,23,11.70
2011,10,23,10,24,11.70
2011,10,23,10,25,11.60
2011,10,23,10,26,11.60
2011,10,23,10,27,11.70
2011,10,23,10,28,11.70
2011,10,23,10,29,11.80
2011,10,23,10,30,11.80
2011,10,23,10,31,11.80
2011,10,23,10,32,11.90
2011,10,23,10,33,11.90
2011,10,23,10,34,12.00
2011,10,23,10,35,12.00
2011,10,23,10,36,12.00
2011,10,23,10,37,12.10
2011,10,23,10,38,12.10
2011,10,23,10,39,12.10
2011,10,23,10,40,12.00
2011,10,23,10,41,12.00
2011,10,23,10,42,12.10
2011,10,23,10,43,12.10
2011,10,23,10,44,12.10
2011,10,23,10,45,12.10
2011,10,23,10,46,12.10
2011,10,23,10,47,12.20
2011,10,23,10,48,12.20
2011,10,23,10,49,12.20
2011,10,23,10,50,12.20
2011,10,23,10,51,12.30
2011,10,23,10,52,12.30
2011,10,23,10,53,12.30
2011,10,23,10,54,12.30
2011,10,23,10,55,12.30
2011,10,23,10,56,12.30
2011,10,23,10,57,12.30
2011,10,23,10,58,12.40
2011,10,23,10,59,12.40
2011,10,23,11,00,12.40
2011,10,23,11,01,12.40
2011,10,23,11,02,12.40
2011,10,23,11,03,12.40
2011,10,23,11,04,12.50
2011,10,23,11,05,12.50
2011,10,23,11,06,12.60
2011,10,23,11,07,12.60
2011,10,23,11,08,12.60
2011,10,23,11,09,12.60
2011,10,23,11,10,12.70
2011,10,23,11,11,12.70
2011,10,23,11,12,12.70
2011,10,23,11,13,12.80
2011,10,23,11,14,12.80
2011,10,23,11,15,12.80
2011,10,23,11,16,12.90
2011,10,23,11,17,12.90
2011,10,23,11,18,13.00
2011,10,23,11,19,13.00
2011,10,23,11,20,13.00
2011,10,23,11,21,13.00
2011,10,23,11,22,13.10
2011,10,23,11,23,13.10
2011,10,23,11,24,13.00
2011,10,23,11,25,13.00
2011,10,23,11,26,13.00
2011,10,23,11,27,12.90
2011,10,23,11,28,12.90
2011,10,23,11,29,12.90
2011,10,23,11,30,13.00
2011,10,23,11,31,13.00
2011,10,23,11,32,13.10
2011,10,23,11,33,13.20
2011,10,23,11,34,13.20
2011,10,23,11,35,13.20
2011,10,23,11,36,13.30
2011,10,23,11,37,13.30
2011,10,23,11,38,13.30
2011,10,23,11,39,13.40
2011,10,23,11,40,13.40
2011,10,23,11,41,13.40
2011,10,23,11,42,13.40
2011,10,23,11,43,13.50
2011,10,23,11,44,13.50
2011,10,23,11,45,13.60
2011,10,23,11,46,13.60
2011,10,23,11,47,13.70
2011,10,23,11,48,13.70
2011,10,23,11,49,13.80
2011,10,23,11,50,13.80
2011,10,23,11,51,13.80
2011,10,23,11,52,13.80
2011,10,23,11,53,13.80
2011,10,23,11,54,13.80
2011,10,23,11,55,13.80
2011,10,23,11,56,13.80
2011,10,23,11,57,13.90
2011,10,23,11,58,13.90
2011,10,23,11,59,13.90
2011,10,23,12,00,14.00
2011,10,23,12,01,14.00
2011,10,23,12,02,14.00
2011,10,23,12,03,14.00
2011,10,23,12,04,14.00
2011,10,23,12,05,14.00
2011,10,23,12,06,14.00
2011,10,23,12,07,14.00
2011,10,23,12,08,13.90
2011,10,23,12,09,13.90
2011,10,23,12,10,13.90
2011,10,23,12,11,13.80
2011,10,23,12,12,13.80
2011,10,23,12,13,13.80
2011,10,23,12,14,13.80
2011,10,23,12,15,13.80
2011,10,23,12,16,13.80
2011,10,23,12,17,13.80
2011,10,23,12,18,13.90
2011,10,23,12,19,13.90
2011,10,23,12,20,13.90
2011,10,23,12,21,14.00
2011,10,23,12,22,14.00
2011,10,23,12,23,14.00
2011,10,23,12,24,13.90
2011,10,23,12,25,14.00
2011,10,23,12,26,14.00
2011,10,23,12,27,14.00
2011,10,23,12,28,14.10
2011,10,23,12,29,14.10
2011,10,23,12,30,14.20
2011,10,23,12,31,14.30
2011,10,23,12,32,14.20
2011,10,23,12,33,14.20
2011,10,23,12,34,14.20
2011,10,23,12,35,14.20
2011,10,23,12,36,14.20
2011,10,23,12,37,14.20
2011,10,23,12,38,14.20
2011,10,23,12,39,14.20
2011,10,23,12,40,14.20
2011,10,23,12,41,14.20
2011,10,23,12,42,14.20
2011,10,23,12,43,14.30
2011,10,23,12,44,14.30
2011,10,23,12,45,14.30
2011,10,23,12,46,14.40
2011,10,23,12,47,14.40
2011,10,23,12,48,14.50
2011,10,23,12,49,14.50
2011,10,23,12,50,14.50
2011,10,23,12,51,14.50
2011,10,23,12,52,14.50
2011,10,23,12,53,14.50
2011,10,23,12,54,14.50
2011,10,23,12,55,14.60
2011,10,23,12,56,14.60
2011,10,23,12,57,14.60
2011,10,23,12,58,14.70
2011,10,23,12,59,14.70
2011,10,23,13,00,14.80
2011,10,23,13,01,14.80
2011,10,23,13,02,14.80
2011,10,23,13,03,14.80
2011,10,23,13,04,14.70
2011,10,23,13,05,14.70
2011,10,23,13,06,14.70
2011,10,23,13,07,14.70
2011,10,23,13,08,14.70
2011,10,23,13,09,14.70
2011,10,23,13,10,14.60
2011,10,23,13,11,14.50
2011,10,23,13,12,14.30
2011,10,23,13,13,14.10
2011,10,23,13,14,14.00
2011,10,23,13,15,13.80
2011,10,23,13,16,13.70
2011,10,23,13,17,13.70
2011,10,23,13,18,13.60
2011,10,23,13,19,13.60
2011,10,23,13,20,13.60
2011,10,23,13,21,13.60
2011,10,23,13,22,13.70
2011,10,23,13,23,13.70
2011,10,23,13,24,13.70
2011,10,23,13,25,13.70
2011,10,23,13,26,13.70
2011,10,23,13,27,13.70
2011,10,23,13,28,13.70
2011,10,23,13,29,13.70
2011,10,23,13,30,13.60
2011,10,23,13,31,13.60
2011,10,23,13,32,13.60
2011,10,23,13,33,13.60
2011,10,23,13,34,13.60
2011,10,23,13,35,13.60
2011,10,23,13,36,13.60
2011,10,23,13,37,13.60
2011,10,23,13,38,13.50
2011,10,23,13,39,13.50
2011,10,23,13,40,13.50
2011,10,23,13,41,13.50
2011,10,23,13,42,13.60
2011,10,23,13,43,13.60
2011,10,23,13,44,13.70
2011,10,23,13,45,13.70
2011,10,23,13,46,13.50
2011,10,23,13,47,13.40
2011,10,23,13,48,13.30
2011,10,23,13,49,13.30
2011,10,23,13,50,13.30
2011,10,23,13,51,13.30
2011,10,23,13,52,13.30
2011,10,23,13,53,13.40
2011,10,23,13,54,13.40
2011,10,23,13,55,13.30
2011,10,23,13,56,13.20
2011,10,23,13,57,13.20
2011,10,23,13,58,13.20
2011,10,23,13,59,13.10
2011,10,23,14,00,13.20
2011,10,23,14,01,13.20
2011,10,23,14,02,13.20
2011,10,23,14,03,13.20
2011,10,23,14,04,13.20
2011,10,23,14,05,13.10
2011,10,23,14,06,13.10
2011,10,23,14,07,13.10
2011,10,23,14,08,13.10
2011,10,23,14,09,13.10
2011,10,23,14,10,13.10
2011,10,23,14,11,13.10
2011,10,23,14,12,13.00
2011,10,23,14,13,13.00
2011,10,23,14,14,12.90
2011,10,23,14,15,12.90
2011,10,23,14,16,12.90
2011,10,23,14,17,12.90
2011,10,23,14,18,12.90
2011,10,23,14,19,12.90
2011,10,23,14,20,13.00
2011,10,23,14,21,13.00
2011,10,23,14,22,13.10
2011,10,23,14,23,13.10
2011,10,23,14,24,13.20
2011,10,23,14,25,13.20
2011,10,23,14,26,13.20
2011,10,23,14,27,13.20
2011,10,23,14,28,13.20
2011,10,23,14,29,13.20
2011,10,23,14,30,13.30
2011,10,23,14,31,13.40
2011,10,23,14,32,13.40
2011,10,23,14,33,13.30
2011,10,23,14,34,13.30
2011,10,23,14,35,13.30
2011,10,23,14,36,13.30
2011,10,23,14,37,13.30
2011,10,23,14,38,13.20
2011,10,23,14,39,13.20
2011,10,23,14,40,13.30
2011,10,23,14,41,13.30
2011,10,23,14,42,13.30
2011,10,23,14,43,13.30
2011,10,23,14,44,13.30
2011,10,23,14,45,13.40
2011,10,23,14,46,13.40
2011,10,23,14,47,13.40
2011,10,23,14,48,13.40
2011,10,23,14,49,13.40
2011,10,23,14,50,13.40
2011,10,23,14,51,13.40
2011,10,23,14,52,13.40
2011,10,23,14,53,13.40
2011,10,23,14,54,13.40
2011,10,23,14,55,13.40
2011,10,23,14,56,13.30
2011,10,23,14,57,13.30
2011,10,23,14,58,13.30
2011,10,23,14,59,13.30
2011,10,23,15,00,13.30
2011,10,23,15,01,13.30
2011,10,23,15,02,13.30
2011,10,23,15,03,13.40
2011,10,23,15,04,13.40
2011,10,23,15,05,13.50
2011,10,23,15,06,13.50
2011,10,23,15,07,13.50
2011,10,23,15,08,13.50
2011,10,23,15,09,13.50
2011,10,23,15,10,13.50
2011,10,23,15,11,13.50
2011,10,23,15,12,13.50
2011,10,23,15,13,13.50
2011,10,23,15,14,13.50
2011,10,23,15,15,13.40
2011,10,23,15,16,13.40
2011,10,23,15,17,13.40
2011,10,23,15,18,13.30
2011,10,23,15,19,13.20
2011,10,23,15,20,13.20
2011,10,23,15,21,13.20
2011,10,23,15,22,13.20
2011,10,23,15,23,13.30
2011,10,23,15,24,13.30
2011,10,23,15,25,13.30
2011,10,23,15,26,13.30
2011,10,23,15,27,13.30
2011,10,23,15,28,13.20
2011,10,23,15,29,13.20
2011,10,23,15,30,13.30
2011,10,23,15,31,13.30
2011,10,23,15,32,13.30
2011,10,23,15,33,13.30
2011,10,23,15,34,13.30
2011,10,23,15,35,13.30
2011,10,23,15,36,13.20
2011,10,23,15,37,13.20
2011,10,23,15,38,13.20
2011,10,23,15,39,13.20
2011,10,23,15,40,13.10
2011,10,23,15,41,13.10
2011,10,23,15,42,13.00
2011,10,23,15,43,13.00
2011,10,23,15,44,12.90
2011,10,23,15,45,12.90
2011,10,23,15,46,12.90
2011,10,23,15,47,12.80
2011,10,23,15,48,12.80
2011,10,23,15,49,12.80
2011,10,23,15,50,12.80
2011,10,23,15,51,12.80
2011,10,23,15,52,12.90
2011,10,23,15,53,12.90
2011,10,23,15,54,12.90
2011,10,23,15,55,12.90
2011,10,23,15,56,12.90
2011,10,23,15,57,12.80
2011,10,23,15,58,12.80
2011,10,23,15,59,12.80
2011,10,23,16,00,12.80
2011,10,23,16,01,12.80
2011,10,23,16,02,12.80
2011,10,23,16,03,12.80
2011,10,23,16,04,12.80
2011,10,23,16,05,12.80
2011,10,23,16,06,12.80
2011,10,23,16,07,12.80
2011,10,23,16,08,12.80
2011,10,23,16,09,12.80
2011,10,23,16,10,12.80
2011,10,23,16,11,12.80
2011,10,23,16,12,12.80
2011,10,23,16,13,12.80
2011,10,23,16,14,12.80
2011,10,23,16,15,12.80
2011,10,23,16,16,12.80
2011,10,23,16,17,12.70
2011,10,23,16,18,12.70
2011,10,23,16,19,12.70
2011,10,23,16,20,12.70
2011,10,23,16,21,12.70
2011,10,23,16,22,12.70
2011,10,23,16,23,12.70
2011,10,23,16,24,12.70
2011,10,23,16,25,12.70
2011,10,23,16,26,12.70
2011,10,23,16,27,12.70
2011,10,23,16,28,12.70
2011,10,23,16,29,12.70
2011,10,23,16,30,12.70
2011,10,23,16,31,12.70
2011,10,23,16,32,12.70
2011,10,23,16,33,12.70
2011,10,23,16,34,12.70
2011,10,23,16,35,12.70
2011,10,23,16,36,12.60
2011,10,23,16,37,12.60
2011,10,23,16,38,12.60
2011,10,23,16,39,12.60
2011,10,23,16,40,12.60
2011,10,23,16,41,12.50
2011,10,23,16,42,12.50
2011,10,23,16,43,12.50
2011,10,23,16,44,12.40
2011,10,23,16,45,12.40
2011,10,23,16,46,12.40
2011,10,23,16,47,12.40
2011,10,23,16,48,12.40
2011,10,23,16,49,12.40
2011,10,23,16,50,12.40
2011,10,23,16,51,12.40
2011,10,23,16,52,12.40
2011,10,23,16,53,12.40
2011,10,23,16,54,12.40
2011,10,23,16,55,12.40
2011,10,23,16,56,12.40
2011,10,23,16,57,12.40
2011,10,23,16,58,12.40
2011,10,23,16,59,12.50
2011,10,23,17,00,12.50
2011,10,23,17,01,12.50
2011,10,23,17,02,12.50
2011,10,23,17,03,12.40
2011,10,23,17,04,12.40
2011,10,23,17,05,12.40
2011,10,23,17,06,12.40
2011,10,23,17,07,12.40
2011,10,23,17,08,12.40
2011,10,23,17,09,12.40
2011,10,23,17,10,12.30
2011,10,23,17,11,12.30
2011,10,23,17,12,12.30
2011,10,23,17,13,12.30
2011,10,23,17,14,12.30
2011,10,23,17,15,12.30
2011,10,23,17,16,12.30
2011,10,23,17,17,12.30
2011,10,23,17,18,12.30
2011,10,23,17,19,12.30
2011,10,23,17,20,12.30
2011,10,23,17,21,12.30
2011,10,23,17,22,12.30
2011,10,23,17,23,12.30
2011,10,23,17,24,12.30
2011,10,23,17,25,12.30
2011,10,23,17,26,12.30
2011,10,23,17,27,12.30
2011,10,23,17,28,12.20
2011,10,23,17,29,12.20
2011,10,23,17,30,12.20
2011,10,23,17,31,12.20
2011,10,23,17,32,12.10
2011,10,23,17,33,12.10
2011,10,23,17,34,12.10
2011,10,23,17,35,12.00
2011,10,23,17,36,12.00
2011,10,23,17,37,11.90
2011,10,23,17,38,11.90
2011,10,23,17,39,11.90